ラッセル-ワトソン彗星

C/1996 P2 ( Russell-Watson )

English version
Home page
Updated on June 27, 1998

---------------------------------------------------------------------

・ プロフィール

発見日 1996年8月10日
発見光度 13等
発見者 Kenneth S. Russell, Fred G. Watson (Anglo-Australian Observatory)

・ 軌道要素

   The following improved orbital elements by Kenji Muraoka, are 
  from 137 observations 1996 Aug. 11 to 1998 Feb. 2, perturbations
  by 9 Planets, Moon and 5 minor planets were taken into account.
   The mean residual is +/- 0.71 arc seconds.

      Epoch  =  1996 Mar. 18.0  TT       JDT = 2450160.5
          T  =  1996 Mar.  1.35294       +/- 0.00188 (m.e.) TT
       Peri. =  188.80146                +/- 0.00032
       Node  =  101.40412                +/- 0.00031   (2000.0)
       Incl. =   29.08318                +/- 0.00009
          q  =    2.0057437              +/- 0.0000148 AU
          e  =    1.0003789              +/- 0.0000075
        1/a  =   -0.0001889              +/- 0.0000037 1/AU
  orig. 1/a  =   +0.001056 
  fut.  1/a  =   +0.000952 

・ 星図

・ 1995年 1月 3日〜1996年 2月27日
・ 1996年 2月27日〜1997年11月28日

・ 光度変化

        m1 = 7.0 + 5 logΔ + 9.2 log r

---------------------------------------------------------------------

軌道要素は村岡健治氏の計算によるものです。
星図は StellaNavigator Ver.2.0 for Windows (アストロアーツ 編著 / アスキー出版局刊) で作成したものです。
光度グラフはComet for Windowsで作成したものです。

---------------------------------------------------------------------

Copyright(C) Seiichi Yoshida (comet@aerith.net). All rights reserved.